Regional Weather Roundup
Issued by NWS

Home | Current Version | Previous Version | Graphics & Text | Print | Product List | Glossary On
Versions: 1 2 3 4 5 6 7 8 9 10 11 12 13 14 15 16 17 18 19 20 21 22 23 24 25 26 27 28 29 30 31 32 33 34 35 36 37 38 39 40 41 42 43 44 45 46 47 48 49 50
149
ASUS44 KJAN 272003
RWRMS

MISSISSIPPI HOURLY WEATHER ROUNDUP
NATIONAL WEATHER SERVICE JACKSON MS
200 PM CST THU NOV 27 2014

NOTE: "FAIR: INDICATES FEW OR NO CLOUDS BELOW 12,000 FEET WITH NO
SIGNIFICANT WEATHER AND/OR OBSTRUCTIONS TO VISIBILITY.

MSZ001>002-007>008-010>013-018>021-025>028-034>036-272100-
NORTHWEST MISSISSIPPI

CITY           SKY/WX    TMP DP  RH WIND       PRES   REMARKS
CLARKSDALE     FAIR      46  32  57 N10       30.48F
CLEVELAND      MOCLDY    45  33  63 NW6       30.48F
GREENWOOD      MOSUNNY   46  29  51 VRB7      30.48F
GREENVILLE     SUNNY     46  30  53 VRB5      30.48F
GRENADA        FAIR      46  28  49 NW7       30.47S
OLIVE BRANCH   PTSUNNY   43  30  61 N7        30.47S
OXFORD         PTSUNNY   41  27  56 NW8       30.47F
TUNICA         CLOUDY    43  32  65 NW8       30.50S
$$

MSZ003>006-009-014>017-022>024-029>033-037>039-272100-
NORTHEAST MISSISSIPPI

CITY           SKY/WX    TMP DP  RH WIND       PRES   REMARKS
COLUMBUS AFB   CLOUDY    44  28  54 NW14      30.45F
CORINTH        CLOUDY    43  28  56 NW10      30.44S
GOLDN TRIANGLE PTSUNNY   46  30  53 N12       30.44S
STARKVILLE     FAIR      43  30  61 N8        30.45S
TUPELO         CLOUDY    44  28  53 N9        30.45S
$$

MSZ040-058-272100-
CENTRAL MISSISSIPPI

CITY           SKY/WX    TMP DP  RH WIND       PRES   REMARKS
JACKSON INTL   SUNNY     51  28  41 NW8       30.45S
JACKSON HAWKNS SUNNY     50  29  44 NW9       30.45S
MERIDIAN KEY   SUNNY     51  29  42 N13       30.42R
MERIDIAN NAS   MOSUNNY   51  30  44 NW12G21   30.43R
RAYMOND        FAIR      50  46  87 NW10      30.46S
VICKSBURG      SUNNY     50  31  48 N10       30.48S
$$

MSZ059>079-272100-
SOUTH MISSISSIPPI

CITY           SKY/WX    TMP DP  RH WIND       PRES   REMARKS
BROOKHAVEN     FAIR      54  30  40 N10       30.43F
HATTIESBURG    SUNNY     56  30  37 NW10G20   30.41F
MCCOMB         SUNNY     57  28  33 N14       30.40F
NATCHEZ        SUNNY     52  30  43 N12       30.45S
PINE BELT      SUNNY     55  28  35 N12       30.42S
$$

MSZ080>082-272100-
COASTAL MISSISSIPPI

CITY           SKY/WX    TMP DP  RH WIND       PRES   REMARKS
BAY ST LOUIS   SUNNY     61  21  21 NW12      30.37F
BILOXI         SUNNY     60  30  31 VRB6      30.36F
PASCAGOULA     SUNNY     60  29  30 VRB7G22   30.35S
GULFPORT       SUNNY     60  29  30 N17       30.36F
$$



USA.gov is the U.S. government's official web portal to all federal, state and local government web resources and services.